FW3849 Weather Reports


Display with metric or nautical units.
time (UTC)temp
F
wind
direction
speed
MPH
gust
MPH
rain 1hr
in
rain 24hr
in
rain mn
in
humidity
%
barometer
mb
20260503225525 77 216 8.0 16.0 0.00 0.00 0.00 24 1015.2
20260503225024 78 189 9.0 16.0 0.00 0.00 0.00 24 1015.3
20260503224523 77 193 7.0 15.0 0.00 0.00 0.00 24 1015.3
20260503224023 77 185 7.0 15.0 0.00 0.00 0.00 25 1015.5
20260503223526 77 209 9.0 17.0 0.00 0.00 0.00 24 1015.4
20260503223024 77 197 10.0 17.0 0.00 0.00 0.00 24 1015.3
20260503222522 77 204 9.0 16.0 0.00 0.00 0.00 24 1015.3
20260503222021 77 193 8.0 16.0 0.00 0.00 0.00 24 1015.5
20260503221520 77 228 7.0 17.0 0.00 0.00 0.00 22 1015.7
20260503221020 78 216 9.0 17.0 0.00 0.00 0.00 23 1015.7
20260503220521 77 227 8.0 14.0 0.00 0.00 0.00 24 1015.7
20260503220119 77 227 8.0 14.0 0.00 0.00 0.00 24 1016.0
20260503215520 77 151 7.0 13.0 0.00 0.00 0.00 23 1016.1
20260503215019 77 181 8.0 17.0 0.00 0.00 0.00 23 1016.4
20260503214519 77 187 9.0 17.0 0.00 0.00 0.00 24 1016.4
20260503214023 77 212 8.0 17.0 0.00 0.00 0.00 23 1016.3
20260503213519 77 196 12.0 17.0 0.00 0.00 0.00 22 1016.5
20260503213017 77 196 6.0 17.0 0.00 0.00 0.00 23 1016.5
20260503212517 77 207 11.0 17.0 0.00 0.00 0.00 23 1016.6
20260503212015 77 202 9.0 15.0 0.00 0.00 0.00 23 1016.7
20260503211514 76 228 6.0 15.0 0.00 0.00 0.00 24 1016.7
20260503211013 76 141 7.0 15.0 0.00 0.00 0.00 24 1016.9
20260503210517 76 185 9.0 16.0 0.00 0.00 0.00 25 1017.0
20260503205511 76 212 9.0 18.0 0.00 0.00 0.00 25 1017.1
20260503205009 75 220 11.0 18.0 0.00 0.00 0.00 25 1017.2
20260503204509 75 204 8.0 18.0 0.00 0.00 0.00 25 1017.4
20260503204007 76 159 11.0 18.0 0.00 0.00 0.00 24 1017.4
20260503203510 76 213 9.0 17.0 0.00 0.00 0.00 25 1017.6
20260503203009 76 195 9.0 15.0 0.00 0.00 0.00 25 1017.6
20260503202506 76 206 10.0 19.0 0.00 0.00 0.00 25 1017.7
20260503202005 76 187 11.0 19.0 0.00 0.00 0.00 24 1017.7
20260503201505 76 202 11.0 17.0 0.00 0.00 0.00 24 1017.8
20260503201007 76 200 8.0 15.0 0.00 0.00 0.00 25 1017.9
20260503200502 75 187 8.0 14.0 0.00 0.00 0.00 26 1018.1
20260503195501 75 196 9.0 19.0 0.00 0.00 0.00 26 1018.4
20260503195100 75 208 9.0 19.0 0.00 0.00 0.00 26 1018.6
20260503194601 75 171 10.0 15.0 0.00 0.00 0.00 26 1018.6
20260503194100 75 193 9.0 16.0 0.00 0.00 0.00 26 1018.9
20260503194002 75 177 9.0 16.0 0.00 0.00 0.00 26 1018.9
20260503193558 75 170 11.0 18.0 0.00 0.00 0.00 26 1018.9
20260503193101 75 168 9.0 18.0 0.00 0.00 0.00 26 1019.0
20260503192555 75 202 8.0 17.0 0.00 0.00 0.00 27 1019.0
20260503192054 74 173 8.0 17.0 0.00 0.00 0.00 27 1019.0
20260503191615 74 184 11.0 16.0 0.00 0.00 0.00 27 1019.3
20260503191053 74 197 9.0 18.0 0.00 0.00 0.00 28 1019.2
20260503190552 74 144 10.0 18.0 0.00 0.00 0.00 27 1019.3
20260503190053 74 198 12.0 20.0 0.00 0.00 0.00 27 1019.5
20260503185556 74 216 12.0 18.0 0.00 0.00 0.00 27 1019.4
20260503185053 74 189 8.0 17.0 0.00 0.00 0.00 27 1019.6
20260503184557 74 196 11.0 17.0 0.00 0.00 0.00 27 1019.8
20260503184054 74 202 10.0 18.0 0.00 0.00 0.00 27 1019.8
20260503183550 74 187 11.0 18.0 0.00 0.00 0.00 27 1019.8
20260503183105 73 185 9.0 17.0 0.00 0.00 0.00 28 1019.9
20260503182547 73 164 9.0 16.0 0.00 0.00 0.00 28 1020.2
20260503182045 73 220 11.0 16.0 0.00 0.00 0.00 28 1020.4
20260503181545 73 219 9.0 17.0 0.00 0.00 0.00 28 1020.5
20260503181144 72 202 11.0 17.0 0.00 0.00 0.00 29 1020.6
20260503180546 72 187 13.0 19.0 0.00 0.00 0.00 29 1020.7
20260503180046 72 187 13.0 19.0 0.00 0.00 0.00 29 1020.7
20260503175541 72 208 12.0 18.0 0.00 0.00 0.00 29 1020.7
20260503175043 72 217 9.0 18.0 0.00 0.00 0.00 31 1020.8
20260503174540 72 191 11.0 18.0 0.00 0.00 0.00 31 1020.8
20260503174041 72 196 8.0 14.0 0.00 0.00 0.00 31 1020.9
20260503173539 72 180 9.0 20.0 0.00 0.00 0.00 30 1021.1
20260503173105 72 228 11.0 20.0 0.00 0.00 0.00 31 1021.0
20260503172536 71 177 13.0 18.0 0.00 0.00 0.00 31 1021.1
20260503172036 71 245 12.0 17.0 0.00 0.00 0.00 31 1021.2
20260503171535 71 229 10.0 17.0 0.00 0.00 0.00 33 1021.5
20260503171035 71 194 11.0 17.0 0.00 0.00 0.00 31 1021.4
20260503170535 71 191 9.0 18.0 0.00 0.00 0.00 34 1021.5
20260503160128 68 198 9.0 14.0 0.00 0.00 0.00 37 1022.5
20260503150518 64 187 9.0 15.0 0.00 0.00 0.00 45 1022.9
20260503150116 64 212 8.0 15.0 0.00 0.00 0.00 46 1023.0
20260503131057 56 159 2.0 4.0 0.00 0.00 0.00 59 1022.8
20260503130556 56 188 1.0 4.0 0.00 0.00 0.00 59 1022.8
20260503120103 54 175 1.0 3.0 0.00 0.00 0.00 60 1021.9
20260503110546 55 192 0.0 2.0 0.00 0.00 0.00 58 1021.5
20260503081537 56 192 0.0 0.0 0.00 0.00 0.00 56 1021.8
20260503081037 56 192 0.0 0.0 0.00 0.00 0.00 56 1021.9
20260503080540 56 192 0.0 0.0 0.00 0.00 0.00 57 1021.8
20260503072536 58 192 0.0 1.0 0.00 0.00 0.00 53 1022.1
20260503072037 58 192 0.0 2.0 0.00 0.00 0.00 53 1022.0
20260503071539 59 193 1.0 3.0 0.00 0.00 0.00 53 1022.0
20260503071035 59 193 0.0 2.0 0.00 0.00 0.00 52 1022.0
20260503070535 59 192 0.0 2.0 0.00 0.00 0.00 51 1022.1
20260503055034 60 193 2.0 3.0 0.00 0.00 0.00 49 1022.1
20260503054538 60 193 1.0 2.0 0.00 0.00 0.00 49 1022.4
20260503054035 60 193 0.0 6.0 0.00 0.00 0.00 49 1022.3
20260503053537 61 195 2.0 6.0 0.00 0.00 0.00 48 1022.4
20260503053038 61 185 1.0 4.0 0.00 0.00 0.00 48 1022.2
20260503052534 61 187 1.0 4.0 0.00 0.00 0.00 47 1022.4
20260503052033 61 181 1.0 6.0 0.00 0.00 0.00 46 1022.3
20260503051534 62 189 3.0 6.0 0.00 0.00 0.00 46 1022.4
20260503051033 62 188 2.0 5.0 0.00 0.00 0.00 45 1022.4
20260503050535 63 203 2.0 4.0 0.00 0.00 0.00 45 1022.5
20260503050033 63 216 1.0 4.0 0.00 0.00 0.00 43 1022.6
20260503045036 63 200 2.0 9.0 0.00 0.00 0.00 42 1022.5
20260503044533 63 206 3.0 9.0 0.00 0.00 0.00 42 1022.5
20260503044032 63 188 3.0 7.0 0.00 0.00 0.00 42 1022.4
20260503043532 63 212 3.0 7.0 0.00 0.00 0.00 43 1022.3
20260503043035 63 208 2.0 7.0 0.00 0.00 0.00 43 1022.3
20260503042532 63 218 2.0 7.0 0.00 0.00 0.00 43 1022.4
20260503042032 63 220 2.0 6.0 0.00 0.00 0.00 43 1022.2
20260503041532 63 216 2.0 6.0 0.00 0.00 0.00 43 1022.2
20260503041031 63 210 2.0 5.0 0.00 0.00 0.00 44 1022.4
20260503040531 63 217 2.0 4.0 0.00 0.00 0.00 44 1022.3
20260503040039 63 231 2.0 6.0 0.00 0.00 0.00 44 1022.3
20260503035034 63 238 2.0 6.0 0.00 0.00 0.00 44 1022.2
20260503034545 63 235 3.0 6.0 0.00 0.00 0.00 43 1022.1
20260503034034 63 220 2.0 4.0 0.00 0.00 0.00 44 1022.0
20260503033533 64 183 1.0 2.0 0.00 0.00 0.00 44 1022.1
20260503033040 64 181 0.0 2.0 0.00 0.00 0.00 43 1022.1
20260503032533 64 181 0.0 2.0 0.00 0.00 0.00 43 1022.2
20260503032034 64 180 0.0 2.0 0.00 0.00 0.00 43 1022.2
20260503031540 65 180 0.0 2.0 0.00 0.00 0.00 42 1022.2
20260503031033 65 181 1.0 3.0 0.00 0.00 0.00 42 1022.2
20260503030532 65 180 1.0 3.0 0.00 0.00 0.00 41 1022.2
20260503030045 65 145 1.0 3.0 0.00 0.00 0.00 40 1022.1
20260503025033 65 158 1.0 3.0 0.00 0.00 0.00 39 1021.8
20260503024530 66 171 1.0 3.0 0.00 0.00 0.00 39 1021.7
20260503024031 66 160 1.0 4.0 0.00 0.00 0.00 39 1021.4
20260503023531 66 160 1.0 5.0 0.00 0.00 0.00 39 1021.2
20260503023031 66 153 1.0 5.0 0.00 0.00 0.00 38 1021.3
20260503022530 67 153 1.0 4.0 0.00 0.00 0.00 38 1021.3
20260503022030 67 141 1.0 6.0 0.00 0.00 0.00 37 1021.2
20260503021539 67 147 0.0 5.0 0.00 0.00 0.00 37 1021.2
20260503021030 67 174 2.0 5.0 0.00 0.00 0.00 36 1021.2
20260503020530 68 105 3.0 6.0 0.00 0.00 0.00 36 1021.3
20260503020029 68 112 3.0 6.0 0.00 0.00 0.00 34 1021.1
20260503015028 68 81 2.0 6.0 0.00 0.00 0.00 34 1020.9
20260503014528 68 148 2.0 6.0 0.00 0.00 0.00 34 1021.0
20260503014028 69 122 2.0 6.0 0.00 0.00 0.00 34 1021.0
20260503013528 69 90 2.0 8.0 0.00 0.00 0.00 33 1020.9
20260503013028 69 105 3.0 8.0 0.00 0.00 0.00 32 1021.0
20260503012528 70 131 2.0 8.0 0.00 0.00 0.00 32 1021.0
20260503012028 70 117 3.0 10.0 0.00 0.00 0.00 31 1020.9
20260503011529 70 71 3.0 10.0 0.00 0.00 0.00 31 1020.9
20260503011027 70 86 4.0 10.0 0.00 0.00 0.00 30 1020.9
20260503010527 71 52 2.0 9.0 0.00 0.00 0.00 29 1020.9
20260503010027 71 68 3.0 10.0 0.00 0.00 0.00 28 1020.7
20260503005027 71 54 4.0 10.0 0.00 0.00 0.00 27 1020.7
20260503004527 71 67 3.0 11.0 0.00 0.00 0.00 28 1020.6
20260503004029 71 95 4.0 7.0 0.00 0.00 0.00 28 1020.7
20260503003527 71 75 3.0 6.0 0.00 0.00 0.00 27 1020.7
20260503003026 71 52 2.0 7.0 0.00 0.00 0.00 27 1020.7
20260503002526 71 106 2.0 6.0 0.00 0.00 0.00 26 1020.7
20260503002027 72 165 2.0 6.0 0.00 0.00 0.00 26 1020.7
20260503001526 72 102 3.0 7.0 0.00 0.00 0.00 26 1020.6
20260503001025 72 165 4.0 9.0 0.00 0.00 0.00 26 1020.7
20260503000524 72 142 1.0 6.0 0.00 0.00 0.00 25 1020.7
20260503000032 72 69 1.0 6.0 0.00 0.00 0.00 25 1020.6
20260502235023 72 139 2.0 5.0 0.00 0.00 0.00 26 1020.6
20260502234524 72 84 2.0 10.0 0.00 0.00 0.00 27 1020.5
20260502234023 72 122 4.0 10.0 0.00 0.00 0.00 26 1020.5
20260502233523 72 75 4.0 8.0 0.00 0.00 0.00 27 1020.5
20260502233022 72 110 3.0 8.0 0.00 0.00 0.00 27 1020.6
20260502232520 72 132 3.0 9.0 0.00 0.00 0.00 27 1020.6
20260502232021 72 79 3.0 9.0 0.00 0.00 0.00 27 1020.7
20260502231523 72 127 3.0 6.0 0.00 0.00 0.00 27 1020.7
20260502231023 72 122 3.0 8.0 0.00 0.00 0.00 26 1020.7
20260502230521 72 152 4.0 11.0 0.00 0.00 0.00 26 1020.8